Terminal Aerodrome Forecast
Issued by NWS Wilmington, OH

Current Version | Previous Version | Graphics & Text | Print | Product List | Glossary On
Versions: 1 2 3 4 5 6 7 8 9 10 11 12 13 14 15 16 17 18 19 20 21
000
FTUS41 KILN 260500
TAFDAY
TAF
KDAY 260530Z 2606/2706 04008KT P6SM OVC100
     FM260900 03010KT P6SM OVC050
     FM261200 02012KT 3SM -SN OVC020
     FM261500 02012KT 3SM -SN BR OVC015
     FM261800 01012KT P6SM VCSH OVC018
     FM270200 35009KT P6SM SCT015 OVC035=

USA.gov is the U.S. government's official web portal to all federal, state and local government web resources and services.